Orbital Elements at Epoch 2459200.5 (2020-Dec-17.0) TDB
Reference: JPL 25 (heliocentric ecliptic J2000)
Element | Value | Uncertainty (1-sigma) | Units |
e | .08810054730338905 | 4.185e-08 | |
a | 2.519807532256136 | 1.1959e-08 | au |
q | 2.297811109565168 | 1.0733e-07 | au |
i | 12.9367209680776 | 4.2374e-06 | deg |
node | 174.2509648537876 | 1.6139e-05 | deg |
peri | 46.85455773804604 | 2.7187e-05 | deg |
M | 305.8069531098968 | 2.3709e-05 | deg |
tp | 2459420.433076736474 (2021-Jul-24.93307674) | 9.7007e-05 | TDB |
period | 1460.997529548201 4.00 | 1.0401e-05 2.848e-08 | d yr |
n | .2464069874993741 | 1.7542e-09 | deg/d |
Q | 2.741803954947104 | 1.3013e-08 | au |
|
| | Orbit Determination Parameters
Additional Information
|